Time,TemperatureF,DewpointF,PressureIn,WindDirection,WindDirectionDegrees,WindSpeedMPH,WindSpeedGustMPH,Humidity,HourlyPrecipIn,Conditions,Clouds,dailyrainin,SoftwareType,DateUTC
2013-03-24 00:02:00,74.0,63.0,-100.00,NE,52,2.0,10.0,69,0.00,,,0.02,,2013-03-24 00:02:00,
2013-03-24 00:11:00,75.0,63.0,-100.00,SE,136,4.0,8.0,67,0.00,,,-99.99,,2013-03-24 00:11:00,
2013-03-24 00:33:00,75.0,63.0,-100.00,SE,136,4.0,8.0,67,0.00,,,-99.99,,2013-03-24 00:33:00,
2013-03-24 00:42:00,75.0,63.0,-100.00,SE,136,4.0,8.0,67,0.00,,,-99.99,,2013-03-24 00:42:00,
2013-03-24 00:52:00,75.0,63.0,-100.00,SE,136,4.0,8.0,67,0.00,,,-99.99,,2013-03-24 00:52:00,
2013-03-24 01:02:00,75.0,63.0,-100.00,SE,136,4.0,8.0,67,0.00,,,-99.99,,2013-03-24 01:02:00,
2013-03-24 01:11:00,75.0,63.0,-100.00,NW,308,1.0,8.0,67,0.00,,,0.02,,2013-03-24 01:11:00,
2013-03-24 01:33:00,75.0,63.0,-100.00,NW,308,1.0,8.0,67,0.00,,,0.02,,2013-03-24 01:33:00,
2013-03-24 01:43:00,75.0,63.0,-100.00,NW,308,1.0,8.0,67,0.00,,,0.02,,2013-03-24 01:43:00,
2013-03-24 01:53:00,75.0,63.0,-100.00,NW,308,1.0,8.0,67,0.00,,,0.02,,2013-03-24 01:53:00,
2013-03-24 02:02:00,75.0,63.0,-100.00,NW,308,1.0,8.0,67,0.00,,,0.02,,2013-03-24 02:02:00,
2013-03-24 02:11:00,68.0,61.0,-100.00,North,3,2.0,9.0,77,0.00,,,0.02,,2013-03-24 02:11:00,
2013-03-24 02:43:00,68.0,61.0,-100.00,North,3,2.0,9.0,77,0.00,,,0.02,,2013-03-24 02:43:00,
2013-03-24 02:52:00,68.0,61.0,-100.00,North,3,2.0,9.0,77,0.00,,,0.02,,2013-03-24 02:52:00,
2013-03-24 03:02:00,68.0,61.0,-100.00,North,3,2.0,9.0,77,0.00,,,0.02,,2013-03-24 03:02:00,
2013-03-24 03:11:00,69.0,61.0,-100.00,NE,45,1.0,8.0,76,0.00,,,0.02,,2013-03-24 03:11:00,
2013-03-24 03:33:00,69.0,61.0,-100.00,NE,45,1.0,8.0,76,0.00,,,0.02,,2013-03-24 03:33:00,
2013-03-24 03:43:00,69.0,61.0,-100.00,NE,45,1.0,8.0,76,0.00,,,0.02,,2013-03-24 03:43:00,
2013-03-24 03:53:00,69.0,61.0,-100.00,NE,45,1.0,8.0,76,0.00,,,0.02,,2013-03-24 03:53:00,
2013-03-24 04:02:00,69.0,61.0,-100.00,NE,45,1.0,8.0,76,0.00,,,0.02,,2013-03-24 04:02:00,
2013-03-24 04:11:00,66.0,59.0,-100.00,NNE,18,0.0,6.0,78,0.00,,,0.02,,2013-03-24 04:11:00,
2013-03-24 04:33:00,66.0,59.0,-100.00,NNE,18,0.0,6.0,78,0.00,,,0.02,,2013-03-24 04:33:00,
2013-03-24 04:43:00,66.0,59.0,-100.00,NNE,18,0.0,6.0,78,0.00,,,0.02,,2013-03-24 04:43:00,
2013-03-24 04:53:00,66.0,59.0,-100.00,NNE,18,0.0,6.0,78,0.00,,,0.02,,2013-03-24 04:53:00,
2013-03-24 05:02:00,66.0,59.0,-100.00,NNE,18,0.0,6.0,78,0.00,,,0.02,,2013-03-24 05:02:00,
2013-03-24 05:11:00,62.0,57.0,-100.00,ENE,65,0.0,4.0,83,0.00,,,0.02,,2013-03-24 05:11:00,
2013-03-24 05:32:00,62.0,57.0,-100.00,ENE,65,0.0,4.0,83,0.00,,,0.02,,2013-03-24 05:32:00,
2013-03-24 05:43:00,62.0,57.0,-100.00,ENE,65,0.0,4.0,83,0.00,,,0.02,,2013-03-24 05:43:00,
2013-03-24 05:52:00,62.0,57.0,-100.00,ENE,65,0.0,4.0,83,0.00,,,0.02,,2013-03-24 05:52:00,
2013-03-24 06:02:00,62.0,57.0,-100.00,ENE,65,0.0,4.0,83,0.00,,,0.02,,2013-03-24 06:02:00,
2013-03-24 06:11:00,65.0,60.0,-100.00,SSW,195,2.0,7.0,84,0.00,,,0.02,,2013-03-24 06:11:00,
2013-03-24 06:32:00,65.0,60.0,-100.00,SSW,195,2.0,7.0,84,0.00,,,0.02,,2013-03-24 06:32:00,
2013-03-24 06:42:00,65.0,60.0,-100.00,SSW,195,2.0,7.0,84,0.00,,,0.02,,2013-03-24 06:42:00,
2013-03-24 06:52:00,65.0,60.0,-100.00,SSW,195,2.0,7.0,84,0.00,,,0.02,,2013-03-24 06:52:00,
2013-03-24 07:02:00,65.0,60.0,-100.00,SSW,195,2.0,7.0,84,0.00,,,0.02,,2013-03-24 07:02:00,
2013-03-24 07:11:00,62.0,57.0,-100.00,North,6,0.0,5.0,84,0.00,,,0.00,,2013-03-24 07:11:00,
2013-03-24 07:32:00,62.0,57.0,-100.00,North,6,0.0,5.0,84,0.00,,,0.00,,2013-03-24 07:32:00,
2013-03-24 07:42:00,62.0,57.0,-100.00,North,6,0.0,5.0,84,0.00,,,0.00,,2013-03-24 07:42:00,
2013-03-24 07:52:00,62.0,57.0,-100.00,North,6,0.0,5.0,84,0.00,,,0.00,,2013-03-24 07:52:00,
2013-03-24 08:02:00,62.0,57.0,-100.00,North,6,0.0,5.0,84,0.00,,,0.00,,2013-03-24 08:02:00,
2013-03-24 08:11:00,63.0,58.0,-100.00,East,100,0.0,0.0,83,0.00,,,0.00,,2013-03-24 08:11:00,
2013-03-24 08:32:00,63.0,58.0,-100.00,East,100,0.0,0.0,83,0.00,,,0.00,,2013-03-24 08:32:00,
2013-03-24 08:42:00,63.0,58.0,-100.00,East,100,0.0,0.0,83,0.00,,,0.00,,2013-03-24 08:42:00,
2013-03-24 08:52:00,63.0,58.0,-100.00,East,100,0.0,0.0,83,0.00,,,0.00,,2013-03-24 08:52:00,
2013-03-24 09:02:00,63.0,58.0,-100.00,East,100,0.0,0.0,83,0.00,,,0.00,,2013-03-24 09:02:00,
2013-03-24 09:11:00,62.0,58.0,-100.00,South,183,0.0,0.0,87,0.00,,,0.00,,2013-03-24 09:11:00,
2013-03-24 09:33:00,62.0,58.0,-100.00,South,183,0.0,0.0,87,0.00,,,0.00,,2013-03-24 09:33:00,
2013-03-24 09:43:00,62.0,58.0,-100.00,South,183,0.0,0.0,87,0.00,,,0.00,,2013-03-24 09:43:00,
2013-03-24 09:52:00,62.0,58.0,-100.00,South,183,0.0,0.0,87,0.00,,,0.00,,2013-03-24 09:52:00,
2013-03-24 10:02:00,62.0,58.0,-100.00,South,183,0.0,0.0,87,0.00,,,0.00,,2013-03-24 10:02:00,
2013-03-24 10:11:00,65.0,56.0,-100.00,SW,221,0.0,3.0,72,0.00,,,0.00,,2013-03-24 10:11:00,
2013-03-24 10:42:00,65.0,56.0,-100.00,SW,221,0.0,3.0,72,0.00,,,0.00,,2013-03-24 10:42:00,
2013-03-24 10:52:00,65.0,56.0,-100.00,SW,221,0.0,3.0,72,0.00,,,0.00,,2013-03-24 10:52:00,
2013-03-24 11:02:00,65.0,56.0,-100.00,SW,221,0.0,3.0,72,0.00,,,0.00,,2013-03-24 11:02:00,
2013-03-24 11:11:00,64.0,58.0,-100.00,South,187,0.0,3.0,81,0.00,,,0.00,,2013-03-24 11:11:00,
2013-03-24 11:33:00,64.0,58.0,-100.00,South,187,0.0,3.0,81,0.00,,,0.00,,2013-03-24 11:33:00,
2013-03-24 11:42:00,64.0,58.0,-100.00,South,187,0.0,3.0,81,0.00,,,0.00,,2013-03-24 11:42:00,
2013-03-24 11:52:00,64.0,58.0,-100.00,South,187,0.0,3.0,81,0.00,,,0.00,,2013-03-24 11:52:00,
2013-03-24 12:02:00,64.0,58.0,-100.00,South,187,0.0,3.0,81,0.00,,,0.00,,2013-03-24 12:02:00,
2013-03-24 12:11:00,62.0,59.0,-100.00,South,188,0.0,3.0,89,0.00,,,0.00,,2013-03-24 12:11:00,
2013-03-24 12:32:00,62.0,59.0,-100.00,South,188,0.0,3.0,89,0.00,,,0.00,,2013-03-24 12:32:00,
2013-03-24 12:42:00,62.0,59.0,-100.00,South,188,0.0,3.0,89,0.00,,,0.00,,2013-03-24 12:42:00,
2013-03-24 12:52:00,62.0,59.0,-100.00,South,188,0.0,3.0,89,0.00,,,0.00,,2013-03-24 12:52:00,
2013-03-24 13:02:00,62.0,59.0,-100.00,South,188,0.0,3.0,89,0.00,,,0.00,,2013-03-24 13:02:00,
2013-03-24 13:11:00,63.0,60.0,-100.00,South,173,0.0,0.0,91,0.00,,,0.00,,2013-03-24 13:11:00,
2013-03-24 13:43:00,63.0,60.0,-100.00,South,173,0.0,0.0,91,0.00,,,0.00,,2013-03-24 13:43:00,
2013-03-24 13:52:00,63.0,60.0,-100.00,South,173,0.0,0.0,91,0.00,,,0.00,,2013-03-24 13:52:00,
2013-03-24 14:02:00,63.0,60.0,-100.00,South,173,0.0,0.0,91,0.00,,,0.00,,2013-03-24 14:02:00,
2013-03-24 14:11:00,62.0,60.0,-100.00,ENE,70,0.0,3.0,92,0.00,,,0.00,,2013-03-24 14:11:00,
2013-03-24 14:33:00,62.0,60.0,-100.00,ENE,70,0.0,3.0,92,0.00,,,0.00,,2013-03-24 14:33:00,
2013-03-24 14:42:00,62.0,60.0,-100.00,ENE,70,0.0,3.0,92,0.00,,,0.00,,2013-03-24 14:42:00,
2013-03-24 14:52:00,62.0,60.0,-100.00,ENE,70,0.0,3.0,92,0.00,,,0.00,,2013-03-24 14:52:00,
2013-03-24 15:02:00,62.0,60.0,-100.00,ENE,70,0.0,3.0,92,0.00,,,0.00,,2013-03-24 15:02:00,
2013-03-24 15:11:00,62.0,59.0,-100.00,WSW,237,0.0,0.0,89,0.00,,,0.00,,2013-03-24 15:11:00,
2013-03-24 15:43:00,62.0,59.0,-100.00,WSW,237,0.0,0.0,89,0.00,,,0.00,,2013-03-24 15:43:00,
2013-03-24 15:53:00,62.0,59.0,-100.00,WSW,237,0.0,0.0,89,0.00,,,0.00,,2013-03-24 15:53:00,
2013-03-24 16:02:00,62.0,59.0,-100.00,WSW,237,0.0,0.0,89,0.00,,,0.00,,2013-03-24 16:02:00,
2013-03-24 16:11:00,62.0,57.0,-100.00,East,83,0.0,3.0,83,0.00,,,0.00,,2013-03-24 16:11:00,
2013-03-24 16:43:00,62.0,57.0,-100.00,East,83,0.0,3.0,83,0.00,,,0.00,,2013-03-24 16:43:00,
2013-03-24 16:52:00,62.0,57.0,-100.00,East,83,0.0,3.0,83,0.00,,,0.00,,2013-03-24 16:52:00,
2013-03-24 17:02:00,62.0,57.0,-100.00,East,83,0.0,3.0,83,0.00,,,0.00,,2013-03-24 17:02:00,
2013-03-24 17:11:00,63.0,55.0,-100.00,SSW,196,0.0,4.0,76,0.00,,,0.00,,2013-03-24 17:11:00,
2013-03-24 17:33:00,63.0,55.0,-100.00,SSW,196,0.0,4.0,76,0.00,,,0.00,,2013-03-24 17:33:00,
2013-03-24 17:42:00,63.0,55.0,-100.00,SSW,196,0.0,4.0,76,0.00,,,0.00,,2013-03-24 17:42:00,
2013-03-24 17:53:00,63.0,55.0,-100.00,SSW,196,0.0,4.0,76,0.00,,,0.00,,2013-03-24 17:53:00,
2013-03-24 18:02:00,63.0,55.0,-100.00,SSW,196,0.0,4.0,76,0.00,,,0.00,,2013-03-24 18:02:00,
2013-03-24 18:11:00,69.0,58.0,-100.00,ESE,106,0.0,3.0,69,0.00,,,0.00,,2013-03-24 18:11:00,
2013-03-24 18:33:00,69.0,58.0,-100.00,ESE,106,0.0,3.0,69,0.00,,,0.00,,2013-03-24 18:33:00,
2013-03-24 18:43:00,69.0,58.0,-100.00,ESE,106,0.0,3.0,69,0.00,,,0.00,,2013-03-24 18:43:00,
2013-03-24 18:52:00,69.0,58.0,-100.00,ESE,106,0.0,3.0,69,0.00,,,0.00,,2013-03-24 18:52:00,
2013-03-24 19:02:00,69.0,58.0,-100.00,ESE,106,0.0,3.0,69,0.00,,,0.00,,2013-03-24 19:02:00,
2013-03-24 19:11:00,69.0,60.0,-100.00,SW,234,0.0,4.0,72,0.00,,,0.00,,2013-03-24 19:11:00,
2013-03-24 19:32:00,69.0,60.0,-100.00,SW,234,0.0,4.0,72,0.00,,,0.00,,2013-03-24 19:32:00,
2013-03-24 19:43:00,69.0,60.0,-100.00,SW,234,0.0,4.0,72,0.00,,,0.00,,2013-03-24 19:43:00,
2013-03-24 19:53:00,69.0,60.0,-100.00,SW,234,0.0,4.0,72,0.00,,,0.00,,2013-03-24 19:53:00,
2013-03-24 20:02:00,69.0,60.0,-100.00,SW,234,0.0,4.0,72,0.00,,,0.00,,2013-03-24 20:02:00,
2013-03-24 20:11:00,69.0,62.0,-100.00,SSW,196,4.0,7.0,78,0.00,,,0.00,,2013-03-24 20:11:00,
2013-03-24 20:43:00,69.0,62.0,-100.00,SSW,196,4.0,7.0,78,0.00,,,0.00,,2013-03-24 20:43:00,
2013-03-24 20:53:00,69.0,62.0,-100.00,SSW,196,4.0,7.0,78,0.00,,,0.00,,2013-03-24 20:53:00,
2013-03-24 21:02:00,69.0,62.0,-100.00,SSW,196,4.0,7.0,78,0.00,,,0.00,,2013-03-24 21:02:00,
2013-03-24 21:11:00,68.0,64.0,-100.00,WSW,242,2.0,10.0,86,0.00,,,0.00,,2013-03-24 21:11:00,
2013-03-24 21:33:00,68.0,64.0,-100.00,WSW,242,2.0,10.0,86,0.00,,,0.00,,2013-03-24 21:33:00,
2013-03-24 21:43:00,68.0,64.0,-100.00,WSW,242,2.0,10.0,86,0.00,,,0.00,,2013-03-24 21:43:00,
2013-03-24 21:53:00,68.0,64.0,-100.00,WSW,242,2.0,10.0,86,0.00,,,0.00,,2013-03-24 21:53:00,
2013-03-24 22:02:00,68.0,64.0,-100.00,WSW,242,2.0,10.0,86,0.00,,,0.00,,2013-03-24 22:02:00,
2013-03-24 22:11:00,64.0,61.0,-100.00,SE,127,0.0,7.0,90,0.03,,,0.03,,2013-03-24 22:11:00,
2013-03-24 22:33:00,64.0,61.0,-100.00,SE,127,0.0,7.0,90,0.03,,,0.03,,2013-03-24 22:33:00,
2013-03-24 22:43:00,64.0,61.0,-100.00,SE,127,0.0,7.0,90,0.03,,,0.03,,2013-03-24 22:43:00,
2013-03-24 22:52:00,64.0,61.0,-100.00,SE,127,0.0,7.0,90,0.03,,,0.03,,2013-03-24 22:52:00,
2013-03-24 23:02:00,64.0,61.0,-100.00,SE,127,0.0,7.0,90,0.03,,,0.03,,2013-03-24 23:02:00,
2013-03-24 23:11:00,74.0,64.0,-100.00,NNW,327,0.0,5.0,71,0.00,,,0.03,,2013-03-24 23:11:00,
2013-03-24 23:32:00,74.0,64.0,-100.00,NNW,327,0.0,5.0,71,0.00,,,0.03,,2013-03-24 23:32:00,
2013-03-24 23:42:00,74.0,64.0,-100.00,NNW,327,0.0,5.0,71,0.00,,,0.03,,2013-03-24 23:42:00,
2013-03-24 23:52:00,74.0,64.0,-100.00,NNW,327,0.0,5.0,71,0.00,,,0.03,,2013-03-24 23:52:00,